Погода в Пушкино

Россия / Калининградская область     54°35′24″N   22°36′29″E
темп.,
°C
ветер,
м/с
пор.,
м/с
влажн.,
%
обл.,
%
осадки,
мм/ч
давл.,
гПа
погр.,
м
11 мая, вт
вт1123:00+15ююв6157714 0.0 1017476
02:00+14ююв71679100 0.0 1017434
05:00+12ююв61582100 0.0 1017392
08:00+15ююв716729 0.0 1018602
11:00+20ююв812575 0.0 1017947
14:00+21юв710545 0.0 10171234
17:00+20юв711615 0.0 10161005
20:00+15юв7166449 0.0 1016612
12 мая, ср
ср1223:00+13юв6167117 0.0 1016520
02:00+12юв615725 0.0 1015429
05:00+12юв6167928 0.0 1015419
08:00+16юв6137436 0.0 1015554
11:00+20юв811635 0.0 10151283
14:00+20вюв895758 0.0 10141509
17:00+18вюв68580 0.0 10131374
20:00+13вюв49760 0.0 1013227
13 мая, чт
чт1323:00+10юв388523 0.0 1012162
02:00+8юв22895 0.0 101124
05:00+8ююз118756 0.0 100810
08:00+10ссз2389100 0.7 1006170
11:00+14сз227597 0.4 1004987
14:00+10всв4594100 1.4 1004298
17:00+11юв1294100 1.4 1003102
20:00+11ююв2589100 1.4 1003142
14 мая, пт
пт1423:00+10ююв4109473 0.0 1002298
02:00+8ююв389660 0.0 1003189
05:00+8ююв259595 0.0 100397
08:00+13юв248526 0.0 1002312
11:00+17ююв236214 0.1 10031266
14:00+17юв337236 1.3 1003970
17:00+17ююв347831 2.8 1004800
20:00+13ю489485 4.8 1004222
15 мая, сб
сб1523:00+11ю3896100 0.0 1006178
02:00+11ююз259691 0.0 1006123
05:00+10зюз1398100 0.0 1006154
08:00+10зсз2297100 0.1 1008208
11:00+9зсз3593100 0.0 1009303
14:00+9зсз4794100 0.2 1010376
17:00+9зсз3792100 0.0 1011393
20:00+9з2595100 0.1 1011185